Voltar ao catálogo

STARLINK-36365

AtivoComunicaçõesSSO
NORAD 67666·PAYLOAD·🇺🇸 United States

Lançado Feb 2, 2026 de Vandenberg Space Force Base

Loading…

Próximas Passagens (próximas 24 horas)

TLE

AtualizadoSource: CelesTrak SupGP

Época: Sep 15, 2026, 03:27 UTC

1 67666C 26022U   26258.14423611 -.00160580  00000+0 -49864-2 0  2580
2 67666  97.2840 289.7367 0001522  93.2667 248.3532 15.33508965    11

Acompanhe STARLINK-36365 em tempo real com AllMySat

Download on the App Store